{"data":{"norad_id":28899,"intl_designator":"2005-044A","name":"INMARSAT 4-F2 (SOUTHPA*)","alt_names":[],"object_type":"PAYLOAD","status":"ACTIVE","operator":null,"country":"IM","launch_date":"2005-11-08","launch_site_code":"SEAL","launch_vehicle":null,"mission":null,"orbit_class":"UNKNOWN","rcs_meters":4.4668,"size_class":null,"mass_kg":null,"dimensions":null,"purposes":["comms","nav"],"wikipedia_slug":null,"has_3d_model":false,"image_url":null,"decayed_at":null,"tle_current":{"epoch":"2026-09-19T17:39:09.897408Z","epoch_age_seconds":80450,"freshness":"FRESH","line1":"1 28899U 05044A   26262.73553122 -.00000262  00000+0  00000+0 0  9994","line2":"2 28899   5.2178  43.7194 0002398 136.6024 226.6286  1.00272555 76476","mean_motion":1.00272555,"eccentricity":0.0002398,"inclination_deg":5.2178,"raan_deg":43.7194,"arg_perigee_deg":136.6024,"mean_anomaly_deg":226.6286,"bstar":0,"rev_number":7647,"period_min":1436.0858761403,"perigee_km":35776.268052659,"apogee_km":35796.490154582,"semimajor_km":42164.51610362,"source":"CELESTRAK","updated_at":"2026-09-20T09:00:46.832885Z"}}}